TimeMST,TemperatureF,Dew PointF,Humidity,Sea Level PressureIn,VisibilityMPH,Wind Direction,Wind SpeedMPH,Gust SpeedMPH,PrecipitationIn,Events,Conditions,WindDirDegrees,DateUTC
12:53 AM,6.1,-0.9,73,30.20,10.0,NNW,4.6,-,N/A,,Clear,330,2013-02-12 07:53:00
1:53 AM,12.0,1.9,64,30.18,10.0,NNW,9.2,-,N/A,,Clear,330,2013-02-12 08:53:00
2:53 AM,12.9,3.0,65,30.17,10.0,NW,8.1,-,N/A,,Partly Cloudy,320,2013-02-12 09:53:00
3:53 AM,12.0,1.9,64,30.17,10.0,NNW,11.5,-,N/A,,Partly Cloudy,330,2013-02-12 10:53:00
4:53 AM,12.0,1.0,61,30.18,10.0,NW,8.1,-,N/A,,Clear,320,2013-02-12 11:53:00
5:53 AM,10.0,-0.0,64,30.21,10.0,NNW,6.9,-,N/A,,Clear,340,2013-02-12 12:53:00
6:53 AM,6.1,-2.0,69,30.24,10.0,NNW,8.1,-,N/A,,Clear,340,2013-02-12 13:53:00
7:53 AM,8.1,-0.9,67,30.29,10.0,Calm,Calm,-,N/A,,Clear,0,2013-02-12 14:53:00
8:53 AM,15.1,3.9,61,30.27,10.0,NW,5.8,-,N/A,,Clear,320,2013-02-12 15:53:00
9:53 AM,21.0,7.0,55,30.25,10.0,Calm,Calm,-,N/A,,Clear,0,2013-02-12 16:53:00
10:53 AM,26.1,10.0,51,30.23,10.0,NW,8.1,-,N/A,,Clear,320,2013-02-12 17:53:00
11:53 AM,30.0,14.0,51,30.20,10.0,NW,15.0,-,N/A,,Clear,320,2013-02-12 18:53:00
12:53 PM,30.0,12.9,49,30.19,10.0,NW,18.4,26.5,N/A,,Clear,320,2013-02-12 19:53:00
1:53 PM,30.0,12.9,49,30.16,10.0,NW,19.6,-,N/A,,Clear,310,2013-02-12 20:53:00
2:53 PM,30.0,14.0,51,30.14,10.0,NW,13.8,-,N/A,,Clear,310,2013-02-12 21:53:00
3:53 PM,30.0,14.0,51,30.15,10.0,NW,11.5,-,N/A,,Clear,310,2013-02-12 22:53:00
4:53 PM,27.0,15.1,61,30.17,10.0,WNW,9.2,-,N/A,,Mostly Cloudy,300,2013-02-12 23:53:00
5:53 PM,21.9,12.0,66,30.19,10.0,NW,6.9,-,N/A,,Clear,310,2013-02-13 00:53:00
6:53 PM,19.9,10.0,65,30.21,10.0,NNW,3.5,-,N/A,,Scattered Clouds,330,2013-02-13 01:53:00
7:53 PM,16.0,9.0,74,30.22,10.0,North,5.8,-,N/A,,Partly Cloudy,360,2013-02-13 02:53:00
8:53 PM,15.1,8.1,74,30.21,10.0,NNW,4.6,-,N/A,,Scattered Clouds,330,2013-02-13 03:53:00
9:53 PM,19.0,10.9,71,30.17,10.0,WNW,5.8,-,N/A,,Overcast,300,2013-02-13 04:53:00
10:53 PM,19.9,10.9,68,30.11,10.0,Calm,Calm,-,N/A,,Mostly Cloudy,0,2013-02-13 05:53:00
11:53 PM,19.0,10.9,71,30.09,10.0,North,8.1,-,N/A,,Clear,360,2013-02-13 06:53:00